Wind_Speed
11 13 11 11 11 11 10 8 8 7 7 7 6 7 7 7 7 8 8 8 7 6 5 4 4 4 4 5 6 6 7 7 8 9 10 11 12 12 12 13 13 17 20 21 23 25 26 26 25 24 23 22 22 22 21 20 20 21 20 18 17 16 16 17 18 19 18 17 16 16 16 17 17 17 18 19 21 21 22 22 22 22 23 25 28
9 13 13 12 12 11 10 9 8 7 7 7 6 6 7 7 8 8 8 8 7 7 5 5 5 5 5 5 6 6 6 6 7 8 9 11 12 13 13 14 14 17 20 21 23 25 26 26 25 24 23 23 22 22 22 21 20 20 20 18 17 15 15 16 17 17 16 15 15 15 16 16 16 17 18 20 21 21 22 22 23 23 23 25 26
9 12 14 13 13 11 10 9 8 8 7 6 6 6 7 7 8 9 8 8 8 7 6 6 6 5 5 5 6 6 6 6 6 6 7 9 11 13 14 14 15 17 20 21 23 25 26 26 26 25 24 23 22 22 22 21 21 20 19 18 16 15 15 16 16 16 15 14 13 14 15 16 16 17 18 20 21 21 22 23 23 24 24 24 25
11 11 13 14 13 11 10 9 8 7 7 6 6 6 7 8 9 9 8 8 8 7 7 6 6 6 5 5 6 6 6 6 5 4 5 8 10 12 14 15 15 17 20 21 23 25 26 26 26 25 24 23 23 23 22 22 21 20 19 18 17 16 15 16 16 15 14 13 12 12 13 14 15 16 18 20 20 20 21 22 23 24 25 25 25
12 11 12 14 13 11 10 9 8 7 7 7 7 7 7 8 9 9 9 8 8 8 8 7 6 6 6 5 6 6 5 5 5 4 4 6 9 12 14 16 16 17 19 21 22 24 26 26 26 25 24 24 23 23 22 22 21 20 20 18 17 16 15 15 15 15 13 12 11 11 11 13 14 15 17 19 19 19 20 22 23 24 25 25 25
12 12 12 13 12 11 9 8 9 8 8 7 7 7 8 9 10 10 9 9 8 8 8 7 7 6 6 5 5 5 5 5 5 4 4 5 7 11 13 16 17 18 19 21 22 24 25 25 25 25 24 24 24 23 22 22 21 21 20 19 17 16 15 15 15 14 13 10 10 10 10 11 13 15 16 17 17 18 20 21 22 24 25 26 26
12 13 13 12 12 11 10 10 10 10 9 9 8 8 9 9 10 10 9 9 9 8 8 7 7 6 6 5 5 5 5 4 4 4 4 5 6 9 12 15 18 18 19 21 22 24 25 26 25 25 24 24 24 23 23 22 22 21 20 19 18 17 15 15 14 14 12 9 9 8 8 10 11 13 15 15 16 17 19 20 22 23 25 26 26
14 12 12 13 13 12 11 11 11 10 10 9 9 9 9 10 10 10 9 9 9 9 8 8 7 6 6 6 5 5 4 4 4 4 4 5 6 8 12 15 17 19 19 20 22 23 25 26 26 25 25 24 25 24 23 23 22 22 21 20 19 18 16 15 14 14 12 9 8 7 7 9 10 12 13 14 15 15 18 19 21 22 23 25 25
15 13 13 13 13 12 11 11 10 10 9 9 9 9 10 10 10 10 9 9 9 9 8 8 7 6 6 6 6 5 4 3 3 4 5 6 7 8 11 14 16 18 20 21 22 23 25 26 27 26 25 24 25 25 24 23 22 22 21 20 19 18 17 15 14 13 12 9 8 7 6 7 9 10 12 13 13 14 16 18 20 21 22 23 24
14 14 14 13 12 11 10 10 9 9 8 9 9 9 10 10 10 9 9 9 9 8 8 7 7 7 6 6 6 5 4 4 4 5 6 7 8 8 11 13 15 17 20 22 22 23 25 26 27 27 25 24 25 25 24 24 23 22 22 21 20 19 18 16 14 13 12 10 8 7 5 6 7 8 10 13 13 12 14 17 19 19 20 22 23
16 15 13 12 11 10 10 9 9 8 8 8 9 9 9 9 9 9 9 9 9 8 7 7 6 6 5 5 5 5 4 4 5 5 6 7 9 10 11 13 16 17 18 21 22 23 24 26 27 27 26 25 24 25 24 24 24 23 22 22 21 20 19 17 15 14 13 11 9 7 6 5 6 7 9 11 13 12 13 16 17 18 19 20 21
17 16 14 13 12 11 10 9 9 8 8 8 9 9 9 9 9 10 9 9 8 7 6 6 6 5 4 3 3 4 4 4 5 6 7 7 8 10 12 14 16 18 18 19 21 23 24 25 26 27 27 25 25 24 24 24 25 24 23 22 22 21 20 18 16 15 13 12 10 8 7 5 4 5 7 9 12 11 12 14 15 17 18 19 20
20 18 17 15 13 11 10 9 8 8 7 8 8 9 9 9 9 9 9 8 7 6 5 5 4 3 2 2 3 3 4 5 6 7 7 7 6 7 10 14 17 18 18 18 19 22 24 24 25 27 27 26 25 25 24 24 25 24 23 23 23 22 21 19 17 16 14 13 11 9 8 6 4 3 4 7 10 11 12 12 13 15 16 18 19
19 17 16 16 13 11 10 8 8 7 7 7 8 8 9 9 9 9 9 8 7 6 5 4 3 2 2 2 2 3 5 6 7 7 7 7 6 6 8 12 16 19 19 19 18 20 23 24 24 25 26 26 26 25 24 24 24 25 24 24 24 23 21 20 19 17 15 14 12 11 10 8 5 2 2 4 7 9 11 11 11 12 14 16 17
15 13 14 15 12 9 8 7 7 6 7 7 8 8 9 9 9 9 8 7 6 5 5 3 3 2 2 2 3 4 5 6 7 7 7 6 6 6 7 8 12 16 19 20 20 19 21 23 24 24 25 26 26 26 25 24 24 24 25 25 25 24 22 21 20 18 16 14 13 12 11 8 6 4 1 1 5 7 9 10 10 11 12 13 15
12 12 12 13 10 7 6 6 6 7 7 8 8 8 9 9 9 8 7 6 6 5 5 4 3 3 2 2 4 5 6 6 6 6 6 6 6 6 6 6 7 10 14 18 19 20 20 22 23 24 25 26 26 26 26 25 25 25 25 26 26 25 23 22 21 20 18 16 14 12 11 9 7 5 3 2 3 5 7 9 9 10 10 12 13
11 12 11 11 8 5 4 6 7 8 9 9 9 9 9 9 9 8 7 7 6 6 6 5 4 3 3 4 5 6 7 7 7 7 7 7 7 7 6 6 6 7 9 12 15 17 19 20 22 24 25 26 26 26 26 26 26 26 25 26 27 26 24 23 22 21 20 18 16 14 12 11 9 8 6 5 4 5 6 7 8 9 9 10 11
11 12 10 8 6 6 8 8 8 9 10 10 10 9 10 9 9 9 8 7 7 7 6 5 4 4 4 5 6 7 7 8 9 9 8 8 7 7 7 8 8 8 8 10 11 13 15 17 20 22 24 25 26 27 26 26 27 27 27 27 28 27 24 24 24 23 22 20 18 17 15 13 12 10 9 8 6 6 7 7 8 9 9 9 10
12 10 11 9 9 11 11 11 10 10 10 10 10 10 9 9 9 9 8 8 7 7 6 4 4 4 5 6 7 7 8 8 9 8 8 9 8 8 9 9 9 9 9 9 10 11 12 13 16 19 22 24 26 27 27 27 27 27 28 29 29 27 25 25 25 25 24 22 21 19 18 16 14 13 12 11 10 9 8 8 8 8 9 9 9
12 11 13 14 14 13 12 11 11 10 10 10 9 9 9 9 8 8 8 7 7 6 5 4 4 5 5 6 7 7 8 8 8 8 8 9 8 8 9 10 10 11 10 9 10 11 11 11 12 15 19 22 24 27 28 28 28 28 28 30 30 28 26 25 25 26 25 24 23 22 20 19 17 16 15 14 13 11 10 9 9 8 8 8 8
15 17 18 16 14 13 12 10 10 9 9 9 9 8 9 8 8 8 7 7 5 4 3 3 4 4 5 6 7 8 8 9 9 9 9 8 8 8 8 9 10 11 11 10 11 11 11 11 11 12 15 18 21 25 28 29 28 28 29 30 31 29 27 26 26 26 26 25 24 23 22 20 19 18 17 16 14 13 12 10 9 9 8 8 8
19 19 17 15 14 13 12 10 9 8 8 8 8 8 9 9 8 8 7 5 4 2 1 2 4 5 6 7 7 8 9 10 11 11 10 9 8 7 8 9 10 10 10 10 11 11 11 11 11 12 13 16 19 22 26 29 29 29 29 30 31 30 28 27 27 27 27 26 25 24 23 22 21 20 19 17 16 14 13 12 10 9 8 8 8
18 16 14 14 14 12 11 10 9 8 8 8 8 8 9 8 8 7 5 3 3 2 1 2 5 6 7 8 8 9 10 11 12 12 11 10 9 9 10 10 9 9 9 10 11 11 11 11 11 11 13 15 17 20 23 27 29 30 29 30 31 30 28 28 28 28 27 26 25 25 24 22 21 21 20 18 16 15 14 13 12 10 9 8 8
16 14 13 13 13 12 11 10 9 9 8 8 8 9 8 8 7 6 4 3 3 3 2 4 6 7 8 10 10 10 11 11 12 12 12 11 10 10 11 11 10 10 9 10 10 10 10 10 10 10 12 14 17 20 22 25 28 30 30 30 31 30 29 29 29 29 28 27 26 25 25 24 22 21 20 19 17 16 15 14 13 11 10 9 8
16 15 13 12 11 11 10 9 8 8 8 8 8 8 8 7 7 6 4 5 5 4 5 6 7 8 10 11 11 11 12 12 12 12 11 10 10 11 12 11 10 10 10 9 9 9 9 8 8 9 10 13 16 20 22 23 26 29 30 30 31 31 30 29 30 29 28 28 27 26 25 25 23 22 21 20 18 17 15 14 13 12 11 10 9
15 14 13 12 11 9 8 8 7 7 8 8 7 8 8 8 7 6 5 6 7 6 6 7 8 9 10 11 11 11 12 13 13 13 11 10 11 12 11 10 10 10 9 8 7 6 7 7 7 7 7 10 13 18 21 23 24 27 29 29 30 32 30 29 29 29 28 28 27 27 26 25 24 23 22 21 19 18 16 16 15 14 13 11 10
14 13 12 10 8 7 6 7 7 8 8 7 7 8 8 8 8 7 7 8 8 8 8 8 9 10 11 11 12 12 13 13 13 14 13 12 12 12 10 9 9 8 7 6 6 6 7 8 7 6 5 6 7 11 18 21 23 25 27 28 30 32 31 29 29 29 28 28 27 27 26 26 25 24 23 22 21 19 18 17 16 15 14 13 12
13 12 10 8 6 7 7 8 8 8 8 8 8 8 8 9 9 8 9 9 10 9 9 9 10 11 12 13 13 13 14 15 14 14 14 14 13 12 10 10 9 7 7 7 7 7 8 8 7 6 5 5 5 5 11 18 21 23 24 25 28 31 30 29 30 29 29 28 27 26 26 25 24 23 23 23 22 21 19 19 18 17 15 14 13
13 13 11 10 10 10 10 9 9 8 8 8 8 9 9 10 9 9 9 10 10 10 9 10 11 12 13 13 13 13 15 16 15 14 13 14 14 11 10 10 9 6 5 7 7 7 8 8 8 8 7 6 5 4 6 12 18 21 22 23 26 28 28 29 29 29 28 27 26 24 24 24 23 22 23 23 23 21 20 19 18 18 17 15 14
16 16 17 16 14 13 11 9 8 8 8 7 7 7 8 8 8 8 8 10 10 9 9 10 11 12 13 13 13 14 15 16 16 15 14 14 14 12 10 9 6 4 5 7 7 6 7 9 10 9 9 8 6 5 5 8 14 17 19 21 23 26 27 27 27 27 27 26 24 23 23 23 22 21 22 22 22 21 20 19 18 18 17 16 15
18 17 19 19 15 13 11 7 6 6 6 5 4 4 4 5 6 6 7 9 9 9 9 10 11 12 13 13 13 14 14 14 15 14 14 16 15 12 8 5 4 6 8 9 8 8 8 10 11 11 11 10 8 6 5 7 10 14 17 19 21 23 24 25 26 25 25 25 23 22 22 22 21 20 20 21 21 21 19 18 18 18 17 16 16
18 15 16 15 14 11 9 7 6 5 4 2 1 2 2 4 5 6 7 8 9 9 9 10 11 12 13 13 13 13 13 13 14 14 15 15 14 10 6 5 7 9 10 11 11 10 10 11 12 12 12 11 10 8 7 8 10 13 16 18 20 22 23 24 25 25 24 24 22 21 21 21 20 20 19 19 20 20 19 18 17 17 17 16 16
18 15 15 11 10 9 9 9 7 5 2 1 1 1 2 4 5 6 7 8 9 10 11 11 12 13 13 13 13 12 13 13 13 13 13 13 11 8 7 8 11 11 12 13 13 13 12 12 13 13 13 12 11 10 8 9 9 10 13 15 18 21 22 24 25 25 24 24 22 21 21 20 19 19 19 19 19 19 19 17 17 16 16 16 16
17 14 14 11 10 9 9 9 6 4 3 3 2 3 3 4 5 6 7 7 9 11 12 12 12 13 14 14 13 13 13 13 13 13 12 11 10 9 10 11 12 12 13 14 13 13 13 14 14 14 14 14 13 11 9 8 7 8 9 11 15 19 21 22 23 23 24 24 24 23 22 20 19 18 18 19 19 18 18 17 16 16 16 16 16
13 10 11 12 12 12 10 9 7 5 4 3 3 5 6 7 8 8 8 8 8 10 12 14 14 13 13 14 15 15 14 13 13 12 11 11 10 12 14 13 13 14 15 15 14 13 13 13 14 13 14 14 13 12 11 9 7 8 8 8 11 15 18 20 21 21 22 23 24 24 24 22 20 18 18 18 18 18 17 17 16 16 15 16 16
10 10 11 14 15 15 12 9 7 4 3 3 4 5 7 8 9 10 11 11 9 9 11 14 16 15 15 16 17 17 15 15 14 13 12 11 12 14 15 15 15 15 16 16 14 14 14 13 12 13 14 14 13 12 12 10 8 9 9 9 10 12 16 17 18 18 18 20 22 23 24 24 22 21 20 18 18 18 17 17 16 16 15 16 16
7 9 12 14 16 16 12 9 7 4 3 3 4 5 7 9 10 12 14 14 11 8 9 12 15 16 16 17 19 18 16 15 15 15 14 13 13 15 16 16 16 16 16 16 15 15 15 13 13 14 14 14 14 13 13 12 11 10 10 12 12 12 15 17 16 16 16 17 19 21 22 23 23 22 22 20 19 18 18 18 17 17 16 16 17
8 9 13 13 15 14 11 9 6 3 2 2 4 6 8 10 12 13 16 17 14 8 8 11 13 15 17 18 19 19 17 16 15 16 16 16 16 16 16 16 16 16 16 16 15 15 14 12 14 15 14 15 15 15 15 14 13 11 10 12 13 14 15 17 17 17 15 15 17 19 20 21 22 21 21 21 20 19 18 18 18 17 17 17 17
12 11 15 14 14 13 11 8 5 3 0 2 5 7 8 10 13 14 16 18 16 10 6 10 12 14 15 17 19 20 18 17 16 17 18 18 18 18 18 18 17 17 16 16 15 14 13 12 13 14 15 16 16 16 16 14 13 12 10 11 12 13 16 18 18 17 16 15 16 18 19 20 22 21 20 19 19 18 18 18 18 17 17 17 17
16 16 18 16 16 15 12 9 6 3 1 3 6 8 9 11 13 13 15 18 18 13 7 7 9 12 13 15 17 20 20 19 18 18 18 18 18 18 18 18 19 19 19 18 15 14 13 14 15 15 15 16 16 17 16 15 13 13 12 10 9 11 14 18 19 18 18 17 17 18 19 19 20 21 19 17 16 15 16 17 17 17 17 18 18
20 22 21 18 18 17 13 10 7 3 2 3 6 8 10 12 13 15 16 18 18 14 10 7 6 9 10 11 13 16 19 20 20 20 19 18 18 17 16 16 18 19 20 18 15 13 14 15 16 15 15 15 16 17 16 16 15 14 13 11 9 10 12 16 19 19 18 19 18 18 18 18 19 19 19 18 16 16 16 15 15 15 16 17 18
23 24 21 19 19 18 14 11 8 4 2 3 5 7 9 12 14 16 17 19 19 15 11 8 6 6 7 7 8 10 13 15 18 20 21 20 20 19 18 18 19 20 20 17 15 14 14 14 14 15 15 15 16 16 17 17 16 15 14 13 12 11 10 13 18 19 18 19 19 18 19 19 19 20 21 20 20 19 18 18 17 16 15 15 15
23 22 19 19 19 18 16 12 9 6 4 3 4 6 8 10 13 16 18 19 20 16 11 8 6 5 5 6 6 7 7 9 12 17 20 21 21 21 20 20 21 21 19 17 16 16 15 14 13 13 14 15 16 17 17 17 16 15 15 14 13 12 11 11 14 17 19 20 19 18 19 20 21 21 21 20 19 19 19 19 20 20 19 18 17
22 20 19 19 19 19 16 13 10 8 5 4 5 5 7 9 13 16 17 18 19 17 12 9 6 4 3 4 5 6 6 6 8 11 14 16 18 20 21 22 22 21 19 17 17 18 16 15 14 13 13 14 15 16 16 16 16 15 15 15 15 14 12 11 12 14 18 21 21 20 21 22 22 21 20 19 18 17 17 17 19 20 21 21 20
19 19 20 19 20 19 17 14 12 9 7 6 6 5 6 8 12 15 16 17 18 17 14 11 8 5 3 3 3 4 5 5 4 6 9 10 11 13 15 16 18 18 18 17 17 18 17 17 17 16 14 14 16 16 16 16 16 16 16 16 16 14 13 12 13 14 16 18 21 22 22 23 22 20 19 18 17 16 16 15 16 17 18 19 20
18 19 20 20 20 20 18 16 13 11 9 8 7 5 6 8 10 13 15 16 17 17 14 11 8 6 5 4 4 4 5 5 4 3 5 5 6 7 9 10 11 10 11 12 14 16 17 17 17 17 16 15 16 16 16 15 15 16 16 16 16 15 14 15 16 15 15 16 18 20 21 22 22 21 20 20 19 19 18 17 15 15 16 17 18
17 19 20 21 21 21 20 18 14 12 10 9 8 7 7 7 9 11 13 14 15 16 13 11 8 6 5 4 4 4 5 5 5 5 4 4 4 4 5 7 7 6 6 7 9 11 13 15 16 16 16 15 15 15 15 15 16 17 15 15 16 16 16 17 18 17 16 16 17 18 18 19 20 19 19 19 20 21 21 20 19 17 16 16 17
16 19 19 20 21 22 21 19 15 13 12 11 10 8 7 7 7 9 11 12 13 14 12 10 8 6 5 3 2 1 2 3 3 4 5 4 3 3 3 4 4 4 5 5 6 7 9 11 12 14 16 16 15 14 14 14 15 16 13 13 15 15 15 17 18 18 18 17 17 17 17 17 17 15 15 17 18 19 19 20 21 19 17 15 15
13 17 19 19 20 22 22 20 17 15 15 14 12 10 9 8 7 7 9 10 11 12 10 8 7 6 6 5 5 4 3 2 1 1 2 3 3 3 2 2 3 4 4 5 4 4 5 6 8 10 12 14 14 14 13 12 13 13 11 11 13 14 14 14 16 17 17 17 17 16 15 14 14 12 12 13 15 16 17 18 19 19 18 16 14
10 15 18 19 20 22 23 22 20 18 17 16 14 12 10 9 8 7 6 8 9 10 8 6 6 6 6 6 6 6 5 5 4 2 1 1 2 2 2 2 3 5 6 5 5 4 4 4 4 6 8 10 12 12 11 10 10 10 9 10 12 12 12 12 13 13 14 15 15 15 14 12 12 11 12 13 14 15 15 16 17 17 17 17 17
9 12 16 18 20 21 22 23 23 22 20 18 16 14 13 11 9 7 6 7 7 8 8 6 6 6 6 5 6 7 7 6 5 4 3 3 2 2 3 3 3 4 5 6 5 4 3 2 2 3 4 6 8 9 10 10 10 9 8 8 9 9 8 9 9 9 10 12 13 13 13 13 14 14 14 16 16 14 13 15 16 17 18 18 17
Wind_Direction
178 161 175 183 182 184 184 186 191 193 193 189 190 193 196 206 207 200 196 193 179 166 162 170 167 163 156 153 157 161 165 161 161 163 167 168 172 180 182 176 171 167 168 171 171 171 171 170 167 165 162 159 156 153 154 150 144 141 141 142 139 135 130 124 116 109 106 103 98 93 87 80 74 70 68 66 63 60 58 56 55 54 54 54 53
181 170 176 178 179 182 186 187 192 194 196 192 192 194 195 205 203 199 194 188 179 171 171 176 171 164 158 155 157 161 163 159 158 159 166 172 174 180 184 179 174 170 170 173 173 173 173 172 170 168 166 163 159 157 159 156 151 147 146 147 144 139 132 125 118 113 110 105 100 97 91 84 77 71 68 65 62 59 57 55 53 52 52 53 53
179 181 175 176 178 178 187 188 194 196 197 196 196 196 197 204 202 199 194 187 182 177 179 178 173 167 162 156 155 156 158 156 156 156 162 172 178 181 184 182 177 174 173 174 176 176 175 175 173 171 169 167 164 162 164 162 157 152 151 152 149 142 134 127 122 119 115 109 103 98 93 88 81 73 69 65 61 58 57 55 53 51 51 52 52
172 185 178 175 176 175 186 187 194 197 198 200 200 200 199 204 201 201 198 192 188 184 187 183 176 171 167 158 154 153 156 157 159 160 162 170 178 182 185 185 181 178 176 177 178 179 178 177 175 174 173 171 169 168 169 167 163 159 157 157 154 148 140 133 128 125 121 117 110 101 95 91 85 77 71 66 62 58 57 55 53 52 51 51 51
170 180 180 174 175 176 183 186 195 198 200 205 204 204 202 205 203 203 202 199 194 190 192 189 181 175 171 161 156 152 154 159 167 174 176 174 178 183 186 188 185 181 180 180 180 181 180 179 178 177 176 175 175 174 173 172 170 166 163 162 160 155 147 139 134 131 127 125 118 107 99 94 89 81 74 68 63 59 57 55 53 52 51 50 49
173 177 180 175 176 176 181 187 197 201 204 206 207 205 205 206 205 203 203 203 199 195 194 193 186 179 174 165 159 153 155 160 173 184 190 192 185 185 186 189 188 184 183 183 183 183 183 182 182 180 179 180 180 178 177 177 176 174 170 168 166 162 156 147 141 136 134 137 128 116 107 99 92 85 77 70 64 59 57 55 53 51 51 50 48
175 177 183 179 177 179 183 191 199 203 204 206 208 206 208 209 208 206 205 207 203 199 196 195 190 181 177 170 161 154 155 160 173 187 195 205 203 191 186 190 191 187 185 187 185 184 185 185 185 184 183 184 184 183 182 182 181 180 176 174 171 169 165 156 148 140 142 149 139 127 116 104 94 86 79 73 66 60 58 55 53 51 50 49 48
173 178 185 182 180 183 184 190 197 200 203 206 207 207 210 210 210 207 205 207 205 202 197 195 192 186 182 175 167 160 161 162 171 186 198 206 215 204 190 192 194 190 188 190 188 186 187 188 188 187 187 188 188 187 187 187 186 186 183 180 178 175 173 165 156 147 149 160 150 138 126 110 97 87 81 75 66 60 58 56 53 51 50 49 48
171 180 186 184 179 178 179 184 191 195 199 204 207 209 211 211 210 207 206 207 206 204 200 199 196 195 188 180 175 170 169 172 179 190 202 207 216 215 200 197 197 192 190 192 190 189 190 191 191 190 191 192 192 191 191 191 191 190 188 187 185 181 179 173 166 155 155 167 162 151 139 116 101 91 84 76 67 60 58 56 53 50 50 49 48
178 184 182 178 172 170 170 174 185 192 197 204 209 211 211 211 210 207 208 208 208 208 207 205 203 199 190 183 177 175 178 181 193 199 206 209 214 220 213 206 202 196 193 194 192 191 192 194 194 193 193 195 196 196 195 195 196 195 193 193 191 188 184 181 174 167 167 173 173 167 157 130 108 91 80 74 66 58 56 55 53 49 48 48 48
191 186 173 167 165 166 164 171 182 190 197 205 211 213 213 212 211 210 211 209 209 211 214 214 207 200 188 184 179 179 186 194 204 207 210 211 214 218 220 215 207 201 196 195 194 194 194 195 196 196 195 197 200 200 199 199 200 200 198 197 196 194 190 186 183 181 180 179 180 181 176 155 119 91 75 71 65 55 54 53 51 49 47 47 47
195 180 167 162 161 162 160 171 181 190 198 206 213 214 214 213 214 213 212 210 210 213 219 217 203 195 188 188 192 195 201 208 214 216 216 213 215 216 220 220 212 206 201 198 197 197 196 197 198 198 197 199 202 203 203 204 204 204 203 201 201 199 194 192 192 192 190 184 185 191 192 182 139 97 74 68 64 54 51 50 49 48 47 46 46
199 176 160 155 153 154 159 172 179 190 199 208 214 213 215 215 217 215 213 212 213 217 212 206 195 191 195 201 209 216 217 217 220 221 222 218 218 217 218 220 216 210 205 202 202 201 198 199 200 200 199 200 204 205 206 208 209 208 207 206 205 203 198 197 199 198 196 189 184 197 209 200 170 115 78 64 59 51 48 48 46 46 45 45 44
207 176 153 148 146 149 158 172 178 190 199 206 211 212 215 216 218 216 216 215 213 210 196 189 185 192 202 217 225 228 225 222 223 223 224 221 217 219 219 219 219 217 212 208 205 203 202 202 202 202 201 201 205 207 208 210 212 213 212 212 210 207 201 200 204 204 202 195 186 197 217 213 195 171 96 59 52 44 41 41 41 41 41 42 43
203 173 150 141 143 149 157 174 179 188 196 201 206 209 214 214 218 216 216 215 209 197 185 179 174 186 194 222 237 234 230 225 228 227 230 229 218 216 221 222 221 221 219 217 211 207 206 206 206 205 204 203 206 208 209 211 213 216 216 216 216 212 205 203 208 209 207 203 195 200 215 222 216 209 223 29 42 35 31 32 33 35 35 37 39
179 160 142 132 140 152 164 187 185 191 195 198 202 205 211 212 214 214 215 210 203 193 185 180 170 179 191 219 236 235 232 225 228 228 227 226 219 213 216 226 227 227 225 224 219 214 211 210 211 209 207 206 207 209 210 212 214 217 219 220 220 216 209 207 210 211 212 210 206 207 216 228 234 237 250 296 6 15 17 21 23 27 29 30 33
160 148 134 128 136 155 194 214 201 198 195 195 197 201 208 211 214 214 214 208 201 197 191 185 177 180 191 215 229 234 235 233 234 230 227 223 221 217 212 217 222 231 231 230 227 221 217 214 215 214 212 209 209 210 210 212 214 217 220 222 223 220 213 210 212 213 214 213 213 215 220 231 241 253 263 279 316 339 350 4 10 16 20 22 27
147 146 143 131 151 207 227 223 207 199 195 196 200 206 211 213 217 214 212 209 205 204 200 191 187 190 199 215 225 234 242 246 246 239 236 233 227 225 219 219 220 226 230 231 231 228 224 220 218 217 216 214 212 212 211 213 215 217 220 223 225 224 218 214 216 217 216 215 215 218 222 230 240 253 264 274 291 309 322 339 353 2 7 12 19
144 156 161 164 196 216 216 207 198 196 196 200 206 211 215 215 216 215 215 214 212 214 212 205 197 201 210 222 230 240 250 253 251 246 245 243 238 233 229 227 224 224 227 229 231 232 230 225 222 220 219 218 216 215 214 214 215 218 221 224 226 225 221 217 219 220 220 219 218 220 224 230 239 250 261 271 281 291 302 317 333 345 353 359 7
159 181 181 184 197 202 198 194 192 196 200 204 211 214 216 216 219 223 225 221 220 224 223 215 207 212 219 231 241 246 253 253 248 249 251 250 245 238 233 231 227 224 226 229 232 234 233 230 227 223 221 220 220 218 216 216 216 218 221 225 226 225 222 220 221 223 223 224 222 223 226 232 238 247 256 265 274 281 291 303 315 327 338 346 353
179 188 185 184 186 186 185 186 189 198 205 208 212 217 221 223 230 235 231 229 230 232 226 215 214 225 232 239 246 247 252 253 249 249 250 250 246 235 230 231 228 225 226 229 231 235 235 233 230 225 222 220 220 220 219 218 217 218 221 225 227 226 223 222 223 225 225 226 226 227 229 233 238 244 251 258 266 274 283 293 301 311 322 332 339
187 186 181 175 176 181 179 181 190 200 204 207 213 220 228 231 238 241 236 237 239 243 234 212 218 227 232 235 241 246 251 252 248 247 245 244 241 229 224 227 227 224 224 227 231 235 239 238 232 226 221 220 220 220 219 219 218 218 221 225 227 226 224 224 225 227 228 228 229 230 231 233 237 242 247 254 261 268 275 282 290 298 308 318 326
186 184 175 171 175 178 179 185 190 197 201 204 212 221 229 235 243 244 244 250 253 271 286 226 221 229 230 228 236 247 253 250 245 246 244 241 236 224 218 219 221 225 227 227 230 233 239 241 236 227 219 217 218 219 220 219 219 220 221 224 227 226 224 225 227 228 229 229 230 232 233 234 236 240 245 250 255 262 268 273 280 287 295 304 313
177 176 174 174 177 178 183 190 192 196 202 206 216 225 232 240 246 249 253 259 263 276 266 237 230 234 233 230 235 242 248 247 243 242 242 240 231 221 216 215 216 223 227 227 228 228 234 241 242 235 223 216 215 218 219 219 219 220 222 225 226 226 224 224 227 229 230 230 231 232 234 236 236 238 242 246 250 255 261 266 271 278 284 291 299
171 173 175 177 182 183 184 191 198 203 209 215 223 232 239 247 249 252 256 255 263 265 249 243 234 229 230 233 234 236 240 242 239 236 235 234 225 218 215 213 213 217 223 222 224 227 231 239 244 242 232 222 215 215 217 218 220 221 222 225 227 226 224 224 226 229 231 232 233 234 235 237 238 238 241 243 246 250 255 260 264 269 275 280 287
170 173 174 175 179 183 188 194 204 212 218 221 226 236 242 248 254 255 255 257 262 259 249 246 234 227 230 232 231 232 234 236 235 229 227 229 225 222 216 212 213 215 218 219 221 228 235 240 244 246 240 232 221 215 216 218 220 222 224 225 228 229 225 224 226 228 231 233 234 235 236 237 238 238 240 242 244 247 251 256 259 261 266 271 277
170 170 169 167 171 181 197 204 208 216 223 225 232 241 247 254 263 263 260 264 266 261 253 245 233 231 235 233 229 231 233 233 230 225 226 230 231 227 220 215 216 213 212 212 212 220 233 239 244 249 248 245 237 219 214 217 220 222 225 226 230 232 229 225 226 228 231 233 233 235 236 238 239 238 239 241 244 246 248 252 255 257 260 264 269
170 162 159 163 181 198 207 209 209 217 222 227 236 247 258 267 272 271 268 269 267 263 256 244 233 232 237 235 229 229 232 231 226 224 227 231 233 230 225 219 213 206 204 205 207 214 230 240 245 249 252 253 256 235 214 214 220 223 225 227 232 236 234 230 229 228 229 232 233 234 236 238 239 239 240 241 243 245 247 250 253 255 258 260 263
168 155 162 184 199 204 205 208 210 216 225 232 244 257 269 275 280 279 274 270 265 261 255 246 237 233 234 235 231 227 229 229 225 224 227 229 232 232 227 222 215 205 202 211 216 219 231 242 249 253 261 260 251 251 225 210 215 222 225 227 232 236 236 234 232 231 231 233 234 234 236 238 238 238 239 241 242 243 245 248 251 254 256 257 259
177 167 174 188 197 202 202 206 211 219 233 245 257 269 279 285 285 280 271 266 262 256 251 248 242 233 230 232 232 227 226 227 226 226 228 231 235 234 227 225 231 228 218 224 226 228 237 242 249 256 262 264 255 255 247 215 209 216 222 225 230 234 236 236 236 234 233 235 236 236 236 238 238 238 239 240 242 243 244 247 249 252 254 255 256
186 184 187 185 187 199 202 200 212 224 237 250 267 283 292 292 284 273 264 262 262 254 246 243 241 236 231 232 234 233 231 230 229 227 228 232 235 237 234 235 240 230 225 223 219 223 233 236 241 249 254 258 258 260 259 233 213 211 215 219 225 230 233 235 236 236 235 236 238 237 236 237 238 238 240 241 243 245 246 246 247 248 250 252 253
186 195 199 182 174 192 198 195 208 213 219 238 303 323 303 289 284 277 269 264 264 258 249 241 239 241 238 235 235 235 235 233 232 228 227 233 237 241 248 242 229 227 229 225 218 216 220 227 232 237 244 248 250 253 250 239 223 214 214 215 219 223 226 230 232 232 232 234 236 236 234 236 237 237 239 241 244 246 247 246 246 245 245 247 249
178 189 194 165 152 181 189 188 194 186 169 101 66 14 333 311 308 300 287 274 267 261 256 250 246 246 245 242 236 232 234 235 237 236 232 234 235 236 237 232 227 229 235 234 227 220 217 224 228 230 235 239 241 241 240 242 241 233 229 225 224 224 223 225 228 228 228 229 231 233 233 234 235 236 237 240 242 244 246 246 246 245 244 243 244
165 183 189 157 151 179 184 179 176 160 132 105 84 47 30 6 354 342 323 301 280 265 258 256 253 247 244 245 242 237 235 234 238 239 237 234 227 221 222 224 228 234 240 241 237 231 228 230 231 228 230 235 236 235 232 239 256 262 258 247 239 237 232 227 226 226 225 226 228 231 231 231 232 232 234 237 239 240 243 245 246 245 244 242 241
174 200 186 161 168 180 179 174 166 150 122 102 75 56 48 35 25 15 1 339 307 276 259 253 251 246 241 243 244 243 242 238 237 237 234 229 223 222 224 223 227 235 241 242 240 234 235 238 237 231 230 234 234 235 230 227 251 271 274 266 249 244 241 237 232 230 228 227 230 232 232 231 230 230 231 234 236 236 238 241 243 243 243 241 239
210 232 186 168 176 174 173 170 157 141 107 80 60 53 45 34 26 19 11 357 330 291 265 251 247 244 241 243 244 244 245 242 239 238 236 229 223 226 229 229 230 235 240 243 241 234 235 240 243 238 235 235 235 237 237 239 260 275 276 267 252 245 243 243 241 239 238 235 234 235 237 237 234 232 232 234 234 235 236 238 240 242 242 240 238
235 232 188 174 176 170 167 164 151 135 92 56 32 34 31 22 17 14 9 2 345 305 271 254 246 243 241 243 245 245 244 242 238 238 241 236 229 229 233 237 238 241 244 247 246 241 239 239 242 244 243 240 238 240 247 257 269 277 277 264 252 248 245 244 243 242 244 243 240 240 241 242 241 239 237 237 237 235 236 236 238 239 240 239 238
245 208 188 180 176 172 167 165 158 142 95 26 358 9 16 12 9 8 7 4 354 324 278 260 251 244 241 242 245 247 245 240 235 235 240 242 238 237 239 241 243 245 247 250 250 245 240 238 242 249 250 245 239 242 250 260 267 268 270 262 251 247 247 247 246 243 245 246 243 243 244 244 245 245 242 241 242 241 240 240 240 241 242 241 239
238 201 192 186 179 181 177 176 174 163 118 342 342 356 5 4 6 5 4 6 1 344 293 262 254 248 244 243 245 248 245 239 234 233 237 242 244 244 243 243 245 246 248 251 250 246 242 243 247 251 250 243 238 241 247 254 262 259 256 259 250 243 244 248 247 245 247 251 247 241 242 245 246 247 246 247 248 247 246 245 246 246 246 247 245
217 198 194 186 182 187 186 189 193 191 271 333 339 349 356 358 2 0 360 7 6 357 333 279 256 249 244 241 242 245 245 241 238 236 237 242 246 247 245 244 245 247 250 251 252 252 250 247 247 247 243 238 235 240 245 248 253 250 246 249 248 245 247 245 242 238 240 249 252 245 240 241 242 243 246 249 251 252 249 249 251 250 250 250 249
203 194 193 184 182 189 191 197 203 213 277 332 341 345 351 353 354 353 356 7 9 4 353 327 280 258 250 245 243 243 245 246 245 243 242 244 247 249 249 248 247 248 249 250 253 255 253 250 249 247 241 236 235 237 242 244 244 242 239 239 242 251 256 245 236 234 237 244 250 249 244 238 237 240 244 245 248 250 251 254 256 254 254 254 251
199 194 192 185 186 192 195 201 209 224 263 317 335 340 345 348 348 347 353 3 8 8 2 349 323 294 277 267 256 249 246 244 245 245 244 245 248 250 251 251 250 250 249 250 252 252 250 251 249 245 241 237 237 238 239 240 240 239 237 238 242 247 251 241 232 231 236 243 247 247 247 244 242 243 244 244 246 249 251 254 256 255 255 257 254
201 198 195 192 192 195 198 202 210 224 242 277 306 327 338 341 341 345 351 359 5 5 4 1 342 316 295 288 279 265 252 237 235 239 242 243 246 249 251 253 254 254 253 251 251 252 252 252 247 242 241 238 237 238 238 238 239 238 237 240 243 243 241 237 233 232 234 241 246 247 248 249 248 246 248 249 248 249 250 250 252 253 254 256 256
206 205 202 199 199 200 203 206 212 221 232 256 283 310 327 333 338 343 348 356 2 360 0 8 360 336 299 282 279 273 264 240 223 228 238 241 243 245 248 251 253 253 252 249 248 250 252 253 251 248 244 239 235 235 235 237 238 237 237 238 240 240 240 237 236 238 238 240 245 248 249 250 249 246 249 255 255 253 252 252 252 252 252 253 254
214 214 209 205 204 205 208 211 215 219 226 248 270 294 313 328 337 341 343 352 359 356 356 7 4 350 323 285 273 273 274 265 233 217 226 232 235 238 241 245 248 250 250 247 244 245 246 247 249 249 245 240 238 237 237 237 236 234 233 233 234 235 238 237 237 239 240 240 242 246 249 251 253 251 251 255 257 257 258 256 253 252 250 249 251
223 217 212 210 209 210 213 215 219 220 222 241 261 278 299 320 331 335 338 347 356 355 355 3 1 346 327 297 278 270 271 278 270 242 228 224 222 224 230 236 240 244 245 244 241 239 240 240 241 243 241 238 237 238 238 235 233 233 232 233 235 234 233 234 235 236 238 238 239 244 246 249 253 255 256 257 257 257 259 258 256 253 250 248 248
225 216 214 214 214 215 218 220 223 223 223 236 253 267 283 307 321 328 333 340 351 354 355 2 4 355 343 317 292 274 270 273 272 268 256 238 225 214 217 227 230 228 223 228 231 232 234 234 234 236 236 235 234 236 237 234 235 236 235 238 241 239 236 234 234 235 236 236 237 239 242 246 250 254 257 259 259 258 257 259 258 256 253 251 249
226 219 220 221 221 220 223 226 229 228 226 234 245 256 268 288 307 320 327 334 348 353 352 4 16 21 24 22 18 345 289 281 274 270 261 246 233 213 204 210 211 205 196 195 206 217 226 230 232 234 234 232 232 234 235 235 238 241 239 239 241 239 236 234 235 235 236 237 238 239 243 248 252 254 256 259 261 260 259 260 259 255 251 248 247
226 225 228 229 228 227 228 232 235 232 230 232 238 246 257 276 293 309 321 327 343 349 348 2 19 29 35 38 43 46 40 29 9 278 256 239 225 210 190 171 159 156 158 165 181 199 215 225 229 231 231 231 231 233 235 238 242 243 240 237 235 233 234 235 237 240 241 241 240 238 238 240 244 250 254 259 262 262 261 259 257 254 249 245 245
216 224 229 230 231 232 234 237 237 235 231 230 235 242 250 264 281 293 309 315 331 343 339 350 13 26 32 33 37 40 40 40 42 54 88 167 197 203 182 152 141 137 137 142 153 169 193 212 220 222 225 228 231 233 235 239 242 240 239 238 232 225 223 227 234 240 245 246 243 240 240 241 246 253 256 257 257 255 255 253 249 246 244 244 246
211 220 227 229 231 233 238 240 238 234 229 226 230 237 243 249 260 269 283 293 313 332 331 338 7 23 24 22 27 32 38 45 50 61 80 108 134 154 156 146 139 134 132 135 141 145 154 167 182 197 209 217 224 227 225 226 231 235 237 242 243 234 220 217 223 230 238 241 242 244 246 249 255 261 262 258 254 255 260 259 252 247 243 240 241
Height
3146 3147 3149 3150 3151 3152 3153 3154 3155 3156 3156 3156 3157 3157 3157 3158 3158 3158 3158 3159 3159 3159 3159 3159 3159 3159 3159 3159 3159 3159 3159 3159 3159 3159 3160 3160 3160 3161 3161 3162 3162 3162 3163 3164 3165 3166 3167 3169 3170 3171 3172 3173 3174 3175 3175 3176 3176 3176 3176 3177 3178 3178 3178 3178 3178 3178 3179 3179 3179 3179 3178 3178 3178 3178 3177 3176 3176 3175 3174 3173 3172 3171 3170 3169 3167
3147 3147 3148 3149 3150 3152 3153 3154 3155 3156 3156 3156 3157 3157 3158 3158 3158 3158 3158 3159 3159 3159 3159 3159 3159 3159 3159 3159 3159 3159 3160 3160 3160 3160 3160 3160 3160 3161 3161 3162 3162 3163 3163 3164 3165 3166 3168 3169 3170 3171 3173 3173 3174 3175 3176 3176 3176 3177 3177 3178 3178 3179 3179 3179 3179 3179 3180 3180 3180 3180 3179 3179 3179 3179 3178 3178 3177 3176 3176 3175 3174 3173 3172 3170 3169
3146 3147 3148 3148 3149 3151 3152 3154 3155 3155 3156 3156 3157 3157 3158 3158 3158 3158 3159 3159 3159 3159 3159 3159 3159 3159 3159 3159 3159 3159 3160 3160 3160 3160 3160 3160 3161 3161 3161 3162 3162 3163 3164 3165 3166 3167 3168 3169 3170 3172 3173 3174 3174 3175 3176 3176 3176 3177 3178 3178 3179 3180 3180 3180 3180 3180 3181 3181 3181 3181 3181 3180 3180 3180 3180 3179 3178 3178 3177 3176 3175 3174 3173 3172 3171
3145 3147 3147 3148 3149 3150 3152 3153 3154 3155 3156 3156 3157 3157 3158 3158 3158 3159 3159 3159 3159 3159 3159 3159 3159 3159 3159 3159 3159 3159 3160 3160 3160 3160 3161 3161 3161 3161 3161 3162 3162 3163 3164 3165 3166 3167 3168 3169 3171 3172 3173 3174 3174 3175 3176 3176 3177 3178 3178 3179 3180 3180 3181 3181 3181 3181 3182 3182 3182 3182 3182 3181 3181 3181 3181 3180 3180 3179 3179 3178 3177 3176 3174 3173 3172
3145 3146 3147 3147 3148 3150 3152 3153 3154 3155 3156 3156 3157 3157 3158 3158 3158 3159 3159 3159 3159 3159 3159 3159 3159 3159 3159 3159 3159 3159 3160 3160 3160 3160 3161 3161 3161 3161 3161 3162 3162 3164 3164 3165 3166 3167 3168 3170 3171 3172 3173 3174 3174 3175 3176 3177 3177 3178 3178 3179 3180 3181 3181 3182 3182 3182 3183 3183 3183 3183 3183 3182 3182 3182 3181 3181 3181 3181 3180 3179 3178 3177 3176 3175 3174
3145 3146 3147 3147 3148 3150 3151 3153 3154 3155 3155 3155 3156 3156 3157 3158 3158 3158 3159 3159 3159 3159 3159 3159 3159 3159 3159 3159 3159 3159 3159 3160 3160 3160 3161 3161 3161 3161 3161 3162 3162 3163 3164 3165 3166 3168 3169 3170 3171 3172 3173 3174 3174 3175 3176 3176 3177 3178 3179 3179 3180 3181 3182 3182 3183 3183 3183 3183 3183 3183 3183 3183 3183 3182 3182 3182 3182 3182 3181 3180 3179 3178 3177 3176 3175
3145 3146 3147 3148 3149 3150 3151 3152 3153 3154 3154 3155 3155 3156 3156 3157 3158 3158 3159 3159 3159 3159 3159 3159 3159 3159 3159 3159 3159 3159 3159 3160 3160 3160 3161 3161 3161 3161 3161 3161 3162 3163 3164 3165 3166 3168 3169 3170 3171 3172 3173 3173 3174 3175 3175 3176 3177 3178 3179 3179 3180 3181 3182 3183 3183 3184 3184 3184 3184 3184 3184 3184 3183 3183 3183 3183 3184 3183 3182 3182 3181 3180 3179 3178 3177
3145 3147 3148 3148 3148 3149 3150 3151 3152 3153 3154 3154 3155 3155 3156 3156 3157 3158 3158 3159 3159 3159 3159 3158 3159 3159 3159 3159 3159 3159 3160 3160 3160 3160 3161 3161 3161 3161 3161 3161 3162 3163 3164 3165 3166 3168 3169 3170 3171 3172 3173 3173 3174 3175 3175 3176 3177 3177 3179 3179 3180 3181 3182 3183 3184 3185 3185 3185 3185 3185 3185 3185 3184 3184 3184 3184 3185 3184 3184 3183 3182 3181 3180 3179 3179
3146 3147 3148 3148 3147 3148 3149 3150 3152 3153 3154 3154 3155 3155 3155 3156 3157 3157 3158 3159 3159 3159 3159 3158 3158 3159 3159 3159 3160 3160 3160 3160 3160 3160 3160 3160 3160 3161 3161 3161 3162 3163 3164 3165 3166 3167 3168 3169 3170 3171 3172 3173 3173 3174 3174 3175 3176 3177 3178 3179 3180 3181 3182 3183 3184 3185 3186 3185 3186 3186 3186 3186 3185 3185 3185 3185 3186 3186 3185 3184 3183 3183 3182 3181 3180
3147 3147 3147 3148 3148 3148 3149 3150 3152 3153 3154 3154 3155 3156 3156 3156 3157 3157 3158 3158 3158 3158 3159 3158 3158 3158 3159 3159 3160 3160 3160 3160 3160 3160 3160 3160 3160 3160 3161 3161 3162 3163 3164 3164 3166 3167 3167 3168 3170 3171 3172 3172 3173 3173 3174 3175 3176 3177 3178 3179 3180 3181 3182 3184 3185 3186 3186 3186 3186 3187 3187 3187 3186 3186 3186 3186 3187 3187 3186 3185 3185 3184 3183 3182 3182
3146 3147 3148 3148 3149 3149 3149 3150 3152 3153 3154 3155 3155 3156 3156 3156 3157 3157 3157 3158 3158 3158 3158 3158 3158 3158 3159 3160 3160 3160 3160 3160 3160 3160 3160 3160 3160 3160 3161 3161 3162 3162 3163 3164 3165 3166 3167 3168 3169 3170 3171 3172 3172 3173 3174 3174 3175 3176 3177 3179 3179 3181 3182 3183 3185 3185 3186 3187 3187 3187 3188 3188 3187 3187 3187 3187 3188 3188 3188 3187 3186 3185 3185 3184 3183
3146 3147 3148 3148 3149 3149 3150 3150 3151 3152 3154 3155 3156 3156 3156 3156 3157 3157 3157 3158 3158 3158 3159 3159 3158 3158 3159 3159 3160 3160 3160 3160 3160 3160 3160 3160 3160 3161 3161 3161 3161 3162 3163 3163 3164 3165 3166 3167 3168 3169 3171 3171 3172 3173 3174 3174 3174 3176 3177 3178 3179 3180 3182 3183 3184 3185 3186 3187 3187 3188 3188 3188 3188 3188 3188 3188 3189 3189 3189 3188 3187 3187 3186 3185 3185
3144 3145 3146 3148 3148 3149 3150 3151 3151 3152 3154 3155 3156 3156 3156 3156 3157 3157 3157 3158 3158 3158 3159 3159 3159 3159 3159 3160 3160 3160 3160 3160 3159 3159 3159 3160 3160 3161 3161 3161 3161 3161 3162 3163 3164 3164 3165 3166 3167 3168 3170 3171 3171 3172 3173 3173 3174 3175 3176 3177 3178 3179 3181 3183 3184 3185 3186 3187 3188 3188 3188 3189 3189 3189 3189 3189 3189 3190 3189 3189 3189 3188 3188 3187 3186
3143 3146 3147 3147 3148 3149 3150 3151 3151 3152 3154 3155 3156 3156 3156 3156 3156 3157 3157 3158 3158 3158 3158 3159 3159 3159 3159 3160 3160 3159 3159 3159 3159 3159 3160 3160 3160 3161 3161 3160 3160 3161 3161 3162 3163 3164 3165 3166 3166 3168 3169 3170 3170 3171 3172 3173 3174 3175 3175 3176 3177 3179 3181 3182 3183 3184 3186 3187 3188 3188 3188 3189 3189 3189 3189 3190 3190 3190 3190 3190 3190 3189 3189 3188 3187
3145 3147 3148 3147 3149 3150 3151 3152 3152 3153 3154 3155 3155 3156 3156 3156 3156 3157 3157 3158 3158 3158 3158 3159 3159 3159 3159 3159 3159 3159 3158 3158 3159 3159 3160 3160 3160 3160 3160 3160 3160 3161 3161 3162 3163 3163 3164 3165 3166 3167 3168 3169 3170 3170 3171 3172 3173 3174 3174 3175 3176 3178 3181 3182 3183 3184 3186 3187 3188 3188 3188 3189 3189 3189 3190 3190 3190 3190 3191 3191 3191 3190 3190 3189 3188
3146 3147 3147 3147 3149 3151 3152 3152 3153 3153 3154 3154 3155 3155 3156 3156 3156 3157 3157 3157 3158 3158 3158 3159 3159 3159 3159 3159 3158 3158 3158 3158 3159 3159 3160 3160 3160 3160 3160 3160 3160 3161 3161 3161 3162 3163 3164 3164 3165 3166 3167 3168 3169 3169 3170 3171 3172 3172 3173 3174 3175 3177 3180 3181 3182 3184 3185 3186 3187 3188 3188 3189 3189 3190 3190 3190 3190 3191 3191 3191 3191 3191 3191 3190 3189
3146 3146 3146 3147 3149 3151 3152 3153 3153 3153 3154 3154 3155 3155 3156 3156 3156 3156 3156 3157 3157 3158 3158 3159 3159 3159 3158 3158 3157 3157 3158 3158 3159 3159 3159 3159 3160 3160 3160 3160 3160 3160 3160 3160 3161 3162 3163 3163 3164 3165 3166 3167 3168 3168 3169 3170 3170 3171 3172 3173 3173 3176 3179 3181 3182 3183 3184 3185 3186 3187 3188 3188 3189 3189 3190 3190 3191 3191 3191 3192 3192 3192 3191 3191 3190
3145 3145 3145 3146 3149 3152 3153 3153 3153 3153 3153 3154 3154 3155 3156 3156 3156 3156 3156 3156 3157 3158 3158 3159 3159 3158 3158 3157 3157 3157 3157 3158 3158 3158 3159 3159 3159 3159 3160 3160 3160 3159 3159 3160 3160 3161 3161 3162 3163 3164 3165 3166 3167 3167 3168 3169 3169 3170 3171 3171 3172 3175 3178 3180 3180 3181 3182 3184 3185 3186 3187 3187 3188 3189 3189 3190 3190 3191 3191 3192 3192 3192 3192 3192 3191
3144 3145 3146 3147 3150 3152 3153 3153 3153 3152 3153 3153 3154 3155 3156 3156 3155 3155 3155 3156 3157 3158 3159 3159 3158 3157 3157 3156 3156 3156 3156 3157 3157 3157 3158 3158 3158 3158 3159 3159 3159 3159 3159 3159 3159 3159 3160 3161 3162 3163 3163 3164 3165 3166 3167 3168 3168 3169 3169 3169 3170 3173 3177 3179 3179 3180 3181 3182 3184 3185 3186 3187 3187 3188 3189 3189 3190 3191 3191 3191 3192 3192 3192 3192 3192
3144 3145 3146 3147 3149 3151 3151 3152 3152 3152 3152 3153 3154 3155 3155 3155 3155 3155 3155 3156 3157 3158 3158 3158 3157 3156 3156 3155 3155 3155 3155 3156 3156 3156 3156 3157 3157 3157 3157 3158 3158 3158 3158 3158 3158 3158 3159 3159 3160 3161 3162 3163 3164 3165 3166 3166 3167 3168 3168 3167 3169 3171 3175 3177 3178 3179 3180 3181 3182 3183 3184 3186 3186 3187 3188 3189 3189 3190 3191 3191 3191 3192 3192 3192 3192
3143 3144 3145 3146 3148 3149 3150 3151 3151 3152 3152 3153 3154 3155 3155 3155 3155 3155 3156 3157 3157 3158 3158 3157 3157 3156 3155 3155 3154 3154 3154 3155 3155 3155 3155 3155 3156 3156 3156 3156 3156 3156 3157 3157 3157 3157 3157 3158 3159 3160 3160 3161 3162 3163 3164 3165 3166 3166 3166 3166 3167 3170 3173 3175 3176 3177 3178 3180 3181 3182 3183 3184 3185 3186 3187 3188 3189 3189 3190 3191 3191 3191 3192 3192 3192
3142 3143 3144 3145 3147 3148 3150 3150 3151 3152 3152 3153 3154 3154 3154 3154 3155 3155 3156 3157 3157 3157 3157 3157 3156 3155 3154 3154 3153 3153 3153 3153 3153 3153 3154 3154 3155 3155 3155 3155 3155 3155 3156 3156 3156 3156 3156 3156 3157 3158 3159 3160 3160 3161 3162 3163 3164 3165 3165 3165 3166 3169 3172 3174 3174 3175 3177 3178 3180 3181 3182 3183 3184 3185 3186 3187 3187 3188 3189 3190 3190 3191 3191 3191 3191
3142 3142 3143 3145 3146 3148 3149 3150 3151 3151 3152 3153 3154 3154 3154 3154 3154 3155 3156 3156 3156 3156 3156 3156 3155 3154 3153 3153 3152 3152 3152 3152 3152 3152 3153 3153 3153 3154 3154 3154 3154 3154 3155 3155 3155 3155 3155 3155 3155 3156 3157 3158 3159 3159 3160 3162 3163 3163 3164 3163 3164 3167 3170 3172 3173 3174 3175 3177 3178 3179 3180 3181 3182 3183 3184 3185 3186 3187 3188 3189 3189 3190 3190 3191 3191
3142 3142 3143 3144 3146 3147 3148 3149 3150 3151 3152 3153 3153 3153 3153 3153 3153 3154 3155 3156 3155 3155 3155 3154 3153 3152 3152 3152 3152 3151 3150 3150 3151 3151 3151 3152 3152 3152 3153 3153 3153 3153 3154 3154 3154 3154 3154 3154 3154 3155 3155 3156 3157 3158 3158 3160 3161 3162 3162 3162 3163 3165 3168 3170 3171 3172 3174 3175 3177 3178 3179 3180 3181 3182 3183 3184 3185 3185 3186 3187 3188 3189 3189 3190 3190
3141 3142 3144 3145 3146 3147 3148 3149 3150 3151 3152 3152 3152 3152 3153 3153 3153 3154 3155 3155 3154 3155 3154 3153 3152 3151 3150 3150 3150 3150 3149 3149 3150 3150 3150 3150 3151 3151 3151 3152 3152 3152 3153 3153 3153 3154 3154 3154 3154 3154 3154 3155 3156 3156 3157 3158 3159 3160 3161 3161 3162 3163 3166 3168 3169 3171 3172 3174 3175 3177 3178 3179 3180 3181 3181 3182 3183 3184 3185 3186 3187 3187 3188 3189 3189
3141 3142 3144 3145 3146 3147 3148 3149 3150 3151 3151 3151 3152 3152 3152 3152 3152 3153 3154 3153 3153 3153 3152 3152 3151 3150 3149 3148 3149 3148 3148 3148 3148 3149 3149 3149 3149 3150 3150 3151 3152 3152 3153 3153 3154 3154 3154 3153 3153 3153 3154 3154 3155 3156 3156 3157 3158 3159 3160 3160 3160 3161 3164 3166 3167 3169 3170 3172 3174 3175 3176 3177 3178 3179 3180 3181 3182 3182 3183 3184 3185 3186 3187 3187 3188
3140 3141 3143 3145 3146 3147 3148 3149 3150 3150 3150 3151 3151 3151 3151 3151 3152 3153 3153 3152 3152 3152 3151 3150 3150 3148 3147 3147 3147 3147 3147 3147 3147 3148 3148 3148 3148 3148 3150 3151 3151 3151 3152 3153 3154 3153 3153 3153 3153 3153 3153 3153 3154 3155 3156 3156 3157 3158 3158 3159 3159 3160 3163 3165 3166 3167 3168 3170 3172 3173 3174 3175 3176 3177 3178 3179 3180 3181 3182 3183 3183 3184 3185 3186 3186
3139 3140 3142 3144 3146 3147 3148 3149 3149 3149 3150 3150 3150 3150 3151 3150 3151 3151 3151 3151 3150 3150 3149 3149 3148 3147 3146 3146 3146 3145 3145 3146 3146 3147 3147 3147 3147 3148 3149 3149 3150 3151 3152 3153 3153 3152 3152 3152 3153 3153 3153 3153 3153 3154 3154 3155 3156 3157 3157 3158 3159 3159 3162 3164 3164 3165 3166 3168 3170 3171 3172 3173 3175 3176 3177 3177 3178 3179 3180 3181 3182 3182 3183 3184 3185
3139 3140 3142 3145 3146 3147 3147 3148 3149 3149 3149 3149 3150 3150 3150 3150 3150 3150 3150 3149 3149 3148 3147 3147 3147 3146 3145 3145 3144 3144 3144 3144 3145 3145 3146 3146 3146 3147 3148 3149 3150 3151 3152 3152 3152 3152 3152 3152 3152 3153 3153 3153 3153 3153 3153 3154 3155 3156 3157 3157 3158 3159 3160 3162 3163 3164 3165 3166 3168 3169 3171 3172 3173 3174 3175 3176 3176 3177 3178 3179 3180 3181 3181 3182 3183
3139 3140 3141 3143 3145 3146 3147 3147 3148 3148 3149 3149 3149 3149 3149 3149 3149 3149 3148 3148 3147 3147 3146 3145 3145 3145 3144 3144 3143 3143 3143 3143 3144 3144 3145 3145 3145 3146 3147 3149 3150 3151 3151 3150 3151 3151 3152 3152 3152 3152 3152 3152 3152 3152 3153 3153 3153 3154 3155 3156 3157 3158 3159 3160 3161 3162 3163 3164 3166 3167 3169 3170 3171 3172 3174 3174 3175 3176 3176 3177 3178 3179 3180 3181 3181
3138 3140 3140 3141 3142 3145 3146 3147 3147 3148 3148 3149 3149 3148 3148 3148 3148 3147 3147 3146 3145 3145 3145 3144 3143 3143 3143 3143 3142 3142 3142 3143 3143 3144 3144 3144 3144 3145 3147 3149 3150 3149 3148 3149 3149 3150 3151 3151 3151 3151 3151 3151 3151 3151 3152 3152 3152 3153 3153 3154 3155 3156 3157 3158 3159 3160 3162 3163 3164 3165 3167 3168 3170 3171 3172 3173 3174 3174 3175 3176 3176 3177 3178 3179 3180
3138 3141 3143 3142 3141 3144 3146 3146 3147 3148 3148 3148 3148 3148 3148 3147 3146 3146 3145 3145 3144 3144 3144 3143 3142 3142 3142 3142 3142 3142 3142 3142 3142 3143 3143 3143 3144 3146 3147 3148 3147 3146 3146 3147 3147 3148 3148 3149 3150 3150 3150 3150 3150 3150 3151 3152 3152 3152 3152 3152 3153 3154 3155 3155 3156 3158 3160 3161 3162 3163 3165 3166 3168 3169 3170 3171 3172 3173 3174 3174 3175 3175 3176 3177 3178
3138 3139 3143 3142 3140 3143 3145 3146 3147 3148 3148 3148 3147 3147 3147 3146 3145 3145 3144 3144 3144 3143 3142 3142 3141 3141 3141 3141 3141 3142 3141 3141 3141 3142 3142 3143 3144 3146 3146 3145 3144 3144 3144 3145 3145 3146 3146 3147 3148 3148 3149 3149 3149 3150 3150 3151 3151 3151 3151 3152 3152 3152 3153 3153 3154 3155 3157 3158 3160 3161 3162 3164 3166 3167 3168 3170 3171 3171 3172 3173 3173 3174 3174 3175 3176
3136 3138 3140 3139 3139 3142 3143 3145 3146 3147 3147 3147 3147 3146 3146 3145 3144 3144 3143 3143 3142 3142 3141 3141 3140 3140 3140 3140 3140 3141 3140 3140 3140 3141 3142 3143 3143 3143 3143 3143 3143 3143 3142 3143 3144 3144 3145 3146 3146 3147 3148 3148 3149 3149 3150 3151 3151 3150 3151 3151 3152 3152 3152 3153 3153 3154 3155 3156 3158 3159 3160 3162 3164 3165 3166 3167 3168 3170 3170 3171 3172 3172 3173 3174 3174
3135 3137 3138 3137 3138 3140 3142 3143 3145 3146 3146 3145 3145 3145 3145 3144 3144 3143 3143 3142 3141 3140 3140 3139 3139 3139 3140 3139 3139 3139 3139 3139 3140 3140 3141 3142 3142 3141 3140 3141 3141 3141 3140 3141 3142 3143 3143 3144 3145 3146 3147 3147 3148 3149 3150 3151 3150 3150 3150 3150 3150 3151 3151 3152 3153 3153 3154 3155 3156 3157 3158 3160 3162 3163 3164 3165 3166 3168 3169 3169 3170 3171 3171 3172 3172
3134 3136 3137 3137 3137 3139 3141 3142 3143 3144 3144 3144 3144 3144 3144 3144 3144 3143 3142 3141 3140 3139 3138 3138 3138 3138 3139 3138 3137 3138 3138 3139 3139 3140 3140 3140 3140 3139 3139 3139 3139 3139 3139 3139 3140 3141 3141 3143 3144 3145 3146 3146 3147 3148 3148 3149 3150 3149 3149 3149 3149 3150 3150 3150 3152 3153 3154 3155 3155 3156 3157 3159 3160 3161 3162 3163 3165 3166 3167 3167 3168 3169 3169 3170 3171
3133 3133 3134 3135 3136 3138 3139 3140 3141 3142 3143 3143 3143 3143 3143 3143 3143 3142 3141 3140 3138 3137 3136 3136 3136 3137 3137 3136 3136 3137 3138 3138 3138 3139 3139 3139 3139 3138 3138 3138 3138 3138 3138 3138 3139 3139 3140 3142 3143 3144 3145 3145 3146 3146 3146 3147 3148 3148 3147 3147 3148 3149 3149 3149 3150 3151 3153 3154 3154 3155 3156 3157 3158 3160 3161 3162 3163 3164 3165 3165 3166 3166 3167 3168 3168
3130 3130 3131 3133 3134 3136 3136 3138 3140 3141 3142 3142 3142 3142 3142 3142 3142 3141 3140 3139 3137 3136 3135 3134 3134 3135 3135 3135 3134 3135 3136 3137 3137 3138 3137 3137 3137 3138 3137 3137 3137 3137 3137 3136 3137 3138 3140 3141 3142 3143 3143 3144 3144 3145 3145 3146 3146 3146 3146 3146 3147 3147 3148 3148 3148 3149 3151 3153 3154 3154 3155 3156 3157 3158 3159 3161 3162 3163 3163 3164 3165 3165 3165 3166 3167
3128 3128 3130 3130 3132 3134 3135 3136 3138 3140 3141 3141 3141 3141 3141 3141 3141 3141 3140 3139 3137 3135 3134 3133 3133 3133 3134 3134 3133 3133 3134 3135 3135 3136 3136 3136 3136 3136 3136 3136 3136 3136 3136 3136 3136 3137 3139 3141 3142 3142 3142 3142 3143 3143 3144 3145 3145 3145 3146 3146 3146 3147 3147 3147 3147 3148 3149 3151 3152 3153 3154 3154 3155 3156 3157 3159 3160 3161 3162 3163 3163 3164 3164 3165 3165
3128 3128 3129 3130 3131 3133 3134 3135 3137 3139 3140 3140 3140 3140 3140 3140 3140 3141 3141 3139 3137 3135 3134 3133 3133 3133 3133 3133 3133 3132 3132 3133 3133 3134 3134 3134 3134 3134 3134 3134 3134 3134 3134 3135 3135 3137 3139 3140 3140 3140 3140 3141 3141 3142 3143 3143 3144 3144 3145 3145 3146 3146 3146 3146 3146 3147 3147 3148 3150 3151 3152 3153 3154 3155 3156 3157 3158 3159 3160 3161 3162 3162 3163 3163 3164
3127 3128 3128 3130 3131 3133 3134 3135 3136 3137 3138 3138 3138 3138 3138 3139 3139 3140 3140 3139 3138 3136 3134 3132 3132 3132 3132 3133 3133 3132 3132 3131 3132 3132 3132 3133 3132 3132 3132 3133 3132 3132 3132 3133 3135 3137 3137 3138 3138 3139 3139 3140 3140 3141 3141 3142 3143 3143 3144 3144 3145 3145 3145 3145 3145 3146 3147 3147 3148 3149 3150 3151 3153 3154 3155 3156 3156 3157 3158 3159 3160 3161 3161 3162 3162
3126 3127 3129 3130 3131 3132 3133 3135 3136 3136 3137 3137 3137 3137 3138 3138 3138 3138 3138 3138 3137 3136 3134 3133 3132 3131 3132 3132 3132 3132 3132 3132 3131 3130 3130 3131 3131 3131 3131 3131 3131 3131 3132 3133 3135 3136 3136 3137 3137 3138 3138 3139 3139 3140 3141 3141 3142 3143 3143 3143 3144 3144 3144 3144 3144 3145 3146 3146 3147 3147 3148 3149 3151 3152 3153 3154 3154 3155 3156 3157 3158 3159 3160 3160 3161
3126 3127 3128 3129 3131 3132 3133 3134 3135 3136 3136 3137 3137 3137 3138 3138 3138 3137 3137 3136 3136 3135 3135 3134 3133 3132 3132 3132 3132 3131 3131 3132 3131 3129 3129 3129 3130 3130 3130 3130 3130 3130 3132 3133 3134 3134 3135 3136 3137 3137 3138 3138 3138 3139 3140 3140 3141 3141 3142 3142 3143 3143 3143 3144 3144 3144 3145 3145 3146 3146 3147 3147 3148 3149 3150 3151 3152 3153 3153 3154 3155 3156 3157 3158 3159
3126 3127 3128 3129 3130 3131 3132 3133 3134 3135 3136 3137 3137 3137 3138 3138 3137 3137 3136 3136 3135 3135 3135 3134 3134 3133 3133 3133 3132 3131 3131 3131 3131 3130 3129 3129 3129 3129 3129 3129 3129 3129 3131 3132 3133 3133 3134 3135 3136 3137 3137 3137 3137 3138 3138 3139 3139 3140 3141 3141 3142 3142 3142 3143 3143 3144 3144 3145 3145 3145 3146 3146 3145 3146 3148 3149 3150 3151 3151 3152 3153 3154 3155 3155 3156
3126 3126 3127 3129 3130 3130 3131 3132 3134 3134 3135 3136 3136 3137 3137 3137 3137 3137 3137 3136 3135 3135 3134 3133 3133 3133 3133 3133 3132 3132 3131 3130 3131 3130 3129 3129 3128 3128 3128 3128 3128 3128 3129 3131 3131 3131 3132 3133 3134 3135 3136 3136 3136 3137 3137 3138 3138 3139 3139 3139 3140 3141 3141 3142 3143 3143 3143 3144 3144 3145 3145 3144 3143 3145 3147 3148 3148 3149 3150 3151 3151 3152 3152 3153 3154
3125 3126 3127 3128 3129 3130 3131 3132 3133 3134 3134 3135 3135 3136 3137 3137 3137 3137 3137 3136 3135 3135 3133 3132 3132 3132 3132 3132 3132 3132 3131 3130 3130 3130 3129 3128 3128 3128 3127 3127 3127 3127 3128 3129 3129 3130 3130 3131 3132 3133 3133 3134 3134 3135 3136 3137 3137 3137 3137 3138 3139 3140 3140 3141 3142 3142 3142 3143 3143 3143 3144 3144 3143 3144 3145 3146 3147 3147 3148 3148 3149 3150 3151 3151 3152
3124 3125 3126 3127 3129 3129 3130 3131 3132 3133 3134 3134 3135 3136 3136 3137 3137 3137 3137 3136 3136 3135 3133 3132 3132 3132 3132 3132 3132 3131 3131 3130 3130 3129 3128 3128 3128 3127 3127 3126 3126 3127 3127 3127 3128 3128 3128 3129 3130 3130 3131 3132 3133 3133 3134 3135 3135 3135 3136 3138 3138 3139 3139 3140 3140 3141 3141 3142 3142 3142 3142 3143 3142 3143 3143 3144 3144 3145 3145 3146 3147 3148 3148 3149 3151
3123 3124 3126 3127 3128 3129 3129 3130 3131 3132 3132 3133 3134 3135 3136 3136 3137 3137 3137 3136 3136 3135 3134 3133 3132 3132 3132 3132 3131 3131 3130 3130 3129 3128 3128 3127 3127 3127 3127 3126 3126 3126 3126 3127 3127 3127 3128 3128 3129 3129 3129 3130 3131 3132 3133 3133 3133 3133 3135 3137 3137 3137 3138 3138 3139 3139 3140 3140 3140 3141 3141 3142 3142 3142 3143 3143 3143 3143 3144 3144 3145 3145 3146 3147 3149
3122 3123 3125 3126 3127 3128 3128 3129 3129 3130 3131 3132 3133 3134 3134 3135 3136 3136 3136 3136 3135 3135 3134 3133 3132 3132 3132 3132 3131 3131 3130 3129 3129 3128 3127 3127 3126 3126 3126 3126 3126 3126 3126 3126 3126 3127 3127 3127 3128 3128 3128 3129 3130 3131 3131 3132 3133 3133 3134 3135 3135 3136 3136 3137 3138 3138 3139 3139 3139 3140 3141 3141 3141 3142 3142 3142 3142 3142 3142 3142 3143 3143 3144 3145 3146
3120 3122 3124 3125 3126 3126 3126 3127 3128 3129 3130 3131 3131 3132 3133 3134 3135 3136 3136 3136 3135 3135 3134 3133 3132 3132 3132 3132 3131 3131 3130 3129 3129 3128 3127 3126 3126 3125 3126 3126 3126 3126 3126 3126 3126 3126 3126 3126 3127 3127 3128 3128 3129 3130 3131 3131 3132 3132 3133 3134 3135 3135 3135 3136 3137 3137 3138 3138 3138 3139 3140 3140 3140 3141 3141 3140 3139 3139 3140 3140 3140 3140 3141 3142 3143
3119 3120 3122 3123 3124 3125 3125 3126 3127 3128 3128 3129 3129 3130 3131 3132 3134 3135 3135 3136 3135 3135 3134 3133 3132 3132 3132 3132 3131 3131 3130 3129 3129 3128 3127 3126 3126 3125 3125 3125 3125 3125 3126 3126 3126 3126 3126 3127 3127 3127 3127 3127 3128 3129 3130 3131 3131 3132 3132 3133 3133 3134 3134 3134 3135 3136 3137 3137 3137 3138 3139 3139 3139 3140 3139 3137 3137 3138 3138 3138 3138 3139 3139 3139 3140